Theta_e
327 326 325 325 326 331 333 331 333 348 347 344 342 343 342 342 340 336 335 333 330 330 330 329 328 328 327 326 327 324 326 327 327 327 327 327 328 328 329 327 327 325 320
327 328 328 327 331 336 333 328 337 348 346 343 343 343 343 340 336 335 335 331 330 329 329 329 327 327 326 326 325 325 325 325 327 326 326 327 328 327 328 327 328 325 322
333 330 329 332 334 332 331 341 350 347 345 342 341 342 340 334 333 332 331 331 330 329 329 329 327 328 328 327 326 324 323 325 325 326 325 327 328 328 327 326 326 325 325
330 329 329 336 341 339 349 350 348 346 345 343 340 334 333 331 333 332 330 332 332 330 330 330 330 329 328 327 326 324 325 325 327 325 326 327 327 327 327 326 326 324 323
333 339 342 343 347 350 347 347 346 343 341 336 333 333 331 332 331 330 330 330 330 330 331 330 329 329 328 327 326 325 324 323 324 326 326 327 327 327 326 327 324 321 321
340 342 344 345 348 344 345 341 340 337 336 333 332 332 331 331 330 330 329 329 330 330 330 329 328 325 328 328 326 324 326 326 325 326 325 326 327 326 326 326 326 323 323
342 341 345 346 345 343 341 338 336 334 333 334 333 331 331 330 329 328 329 329 329 330 329 330 325 326 327 328 327 327 327 327 327 326 327 326 326 327 326 326 325 324 322
340 342 344 343 342 339 336 334 331 333 333 331 330 331 331 329 330 329 328 328 329 329 330 327 325 326 326 326 326 327 326 327 327 327 326 326 325 327 326 326 326 325 324
341 341 339 340 339 336 334 334 332 331 332 332 331 331 330 329 329 329 328 328 328 330 330 328 325 326 325 325 325 326 327 327 326 325 325 325 325 324 326 326 326 324 324
339 338 340 338 334 334 334 333 332 331 330 331 331 330 330 329 329 327 326 327 330 330 329 327 327 326 326 325 325 325 326 325 324 325 325 326 325 325 325 326 326 325 323
338 338 335 333 333 334 333 331 332 332 331 331 330 330 330 330 328 325 325 327 329 328 328 328 328 328 326 326 326 326 326 325 326 326 325 325 326 326 325 326 327 325 324
334 335 336 334 333 332 330 329 331 332 332 331 331 331 330 326 326 325 325 329 329 329 328 327 326 326 327 326 326 327 327 326 324 323 325 325 324 325 326 325 326 326 325
335 336 334 332 332 331 331 331 332 333 333 331 331 330 329 326 326 325 326 329 328 328 329 327 325 325 326 327 326 326 326 325 325 324 324 324 322 324 324 324 325 326 323
334 334 332 331 332 332 331 332 332 331 330 331 331 330 330 328 327 326 327 329 329 329 328 327 326 324 325 325 326 326 326 325 324 323 323 321 321 322 323 324 325 322 321
333 332 331 331 331 331 331 331 330 330 330 330 331 330 329 328 327 326 325 325 327 327 326 326 325 324 324 324 326 326 324 324 323 321 320 321 323 323 323 323 322 322 322
332 331 330 329 330 331 331 330 331 330 330 330 330 329 328 326 324 323 324 323 323 323 323 323 324 324 324 324 325 325 325 324 323 321 322 322 323 323 324 324 324 324 324
331 330 329 330 329 329 329 329 329 329 329 328 329 329 328 326 325 323 323 323 324 324 324 323 323 323 323 323 324 324 325 325 323 323 322 322 322 323 323 324 324 323 322
330 329 329 330 329 328 329 330 329 329 328 327 328 328 328 326 324 324 323 322 324 323 324 323 322 322 324 324 323 324 324 323 323 321 322 323 322 323 323 323 324 323 323
328 329 329 329 330 329 329 330 330 329 329 328 327 327 326 326 324 322 322 322 322 322 322 322 321 323 323 323 323 324 324 322 322 321 321 322 323 323 323 323 323 323 322
328 330 329 329 330 330 331 329 329 327 327 327 327 325 324 324 322 322 323 323 323 323 323 322 321 323 323 323 324 324 322 323 321 322 322 323 322 322 322 322 323 323 322
327 331 331 330 331 331 331 327 326 324 325 324 324 324 324 323 323 324 324 324 324 323 323 324 322 322 323 324 324 324 324 322 323 323 323 323 322 322 322 322 323 323 323
326 331 332 332 332 332 332 329 327 325 324 324 324 324 324 325 325 326 327 327 327 326 325 325 324 325 324 323 323 324 324 324 324 324 324 324 323 322 323 323 323 323 323
328 332 333 332 332 332 333 331 330 326 324 324 324 325 325 325 325 326 327 328 328 328 327 326 326 326 327 326 325 326 324 324 324 324 324 324 324 323 324 324 324 324 324
330 330 330 330 333 333 333 331 330 326 324 324 324 325 325 326 326 325 327 328 329 329 329 328 326 326 327 327 328 327 327 327 327 327 327 327 327 327 326 326 326 326 326
330 329 329 329 329 331 332 331 331 327 325 324 324 324 326 328 329 329 328 329 329 329 329 329 328 328 328 328 328 328 328 327 327 327 327 328 328 328 327 327 327 328 328
329 329 328 328 328 329 331 331 331 330 326 324 326 327 328 328 329 329 329 328 328 328 327 326 325 326 326 327 328 327 326 326 326 327 327 326 326 327 327 327 327 327 327
Wind_Speed
30 32 36 34 33 29 31 28 28 25 27 20 22 25 23 20 18 16 14 12 13 13 12 11 10 10 12 12 13 12 10 8 11 9 9 12 13 15 18 16 14 12 14
28 28 28 29 26 29 29 28 29 27 26 22 24 24 24 19 16 15 14 13 13 9 9 8 9 10 11 12 12 15 14 8 8 8 11 14 14 16 17 17 17 14 14
21 24 26 25 27 27 28 28 28 29 27 26 24 24 21 17 13 12 10 14 13 9 5 6 8 11 10 10 10 12 14 12 9 9 12 16 16 18 17 20 15 15 15
28 28 25 25 24 27 29 29 28 28 29 26 24 20 19 14 13 10 11 14 12 11 9 8 9 9 10 10 10 12 14 13 11 11 13 18 19 19 19 19 18 16 18
29 26 25 25 26 29 30 28 28 28 27 24 23 20 17 16 13 13 15 12 11 12 11 10 8 8 8 8 9 15 13 14 13 14 17 19 22 23 23 20 21 19 20
26 28 29 31 33 31 30 29 28 27 26 23 21 19 18 15 16 16 14 12 12 11 10 8 8 8 10 11 11 13 13 13 15 16 20 22 25 24 22 21 21 22 20
29 30 34 32 31 29 28 27 28 27 26 20 19 20 17 16 18 16 15 14 13 11 10 8 7 6 10 13 13 12 13 13 9 12 17 19 26 26 25 24 23 25 25
31 34 34 30 28 29 28 28 26 24 22 20 20 18 16 16 16 15 14 13 12 11 10 9 6 6 10 13 13 13 13 14 12 11 8 11 22 23 20 23 22 23 23
35 32 28 30 31 28 29 28 25 24 22 19 17 19 19 17 14 15 15 13 12 12 11 10 7 7 10 12 11 12 14 12 11 10 8 7 16 23 24 23 23 24 28
35 30 32 29 30 32 29 28 26 22 20 19 20 17 15 15 14 13 12 13 14 14 13 9 10 8 8 10 10 10 14 12 11 12 14 16 20 20 19 19 23 25 30
29 32 31 29 28 26 25 25 25 23 21 19 18 16 14 13 14 13 12 12 13 11 12 11 11 11 10 11 9 9 12 13 13 11 15 19 22 21 20 19 23 22 26
33 35 32 28 26 23 22 22 20 21 20 20 18 18 15 16 14 13 12 12 14 13 12 9 10 11 12 10 11 12 11 11 13 14 15 18 20 23 23 21 17 21 19
35 34 32 29 25 23 22 22 20 22 22 22 21 20 18 17 15 14 13 14 14 12 10 8 8 10 12 13 12 12 11 12 14 13 16 18 18 18 19 19 21 23 18
35 34 28 24 26 22 20 19 20 22 23 22 21 20 18 16 16 15 15 14 13 13 12 9 9 9 10 12 15 14 11 9 11 11 15 13 15 19 19 18 19 21 19
34 32 27 25 23 22 20 19 18 16 17 20 19 18 16 12 12 13 14 14 13 12 11 11 11 11 11 14 16 15 12 10 10 9 12 16 18 19 16 18 20 20 19
37 32 29 22 26 23 22 21 17 14 14 13 11 12 11 9 7 10 10 9 9 8 10 10 11 12 15 17 22 19 16 12 11 11 14 19 20 21 20 21 20 18 19
35 32 27 25 23 22 20 20 22 19 15 12 14 13 11 9 8 10 9 9 8 8 7 9 10 12 13 17 22 22 21 15 11 11 12 18 21 22 21 21 18 17 15
31 28 27 27 24 20 19 20 21 23 21 18 16 14 12 10 10 10 9 10 11 9 7 6 6 7 12 16 19 20 20 15 12 14 14 14 20 19 21 22 22 19 15
28 29 28 28 25 21 18 18 20 20 20 20 21 17 16 15 11 9 11 9 13 10 7 7 7 7 10 13 17 16 16 12 11 15 17 15 17 18 18 17 17 18 16
29 27 28 26 23 21 17 18 21 20 21 21 19 16 17 17 16 15 12 13 14 12 7 4 7 6 9 18 19 15 13 11 9 11 18 15 15 16 17 16 16 19 19
28 24 26 25 23 21 18 20 21 22 21 20 16 13 12 14 18 16 14 11 9 8 6 5 7 7 9 11 14 16 14 12 10 11 14 15 15 16 13 13 14 16 16
27 24 24 22 24 24 21 20 20 21 22 21 20 20 20 20 17 15 12 9 7 7 5 4 5 8 8 8 8 10 12 11 9 9 10 13 16 16 14 13 15 15 16
24 27 21 20 22 24 25 22 20 20 24 24 25 25 23 19 14 10 8 5 4 4 5 7 6 5 3 5 5 6 7 8 8 9 9 10 13 15 13 12 12 13 14
26 27 23 15 24 27 27 28 26 24 27 27 26 25 21 18 14 12 6 5 5 9 9 7 8 6 5 5 4 4 5 6 7 7 7 7 8 10 13 15 15 16 20
25 24 19 14 19 30 33 31 30 27 26 29 30 28 24 19 16 15 12 9 9 10 8 8 8 9 8 7 7 8 6 3 6 8 7 9 10 12 16 19 20 20 21
21 20 20 20 25 34 38 35 35 33 34 33 33 28 24 20 18 19 17 17 16 16 14 12 12 11 10 9 7 6 2 4 6 9 9 9 6 11 11 13 14 15 17
Wind_Direction
219 229 237 243 243 234 228 231 230 220 214 207 201 200 202 203 207 219 228 234 231 223 225 229 230 233 244 241 239 228 222 227 226 210 202 202 201 195 184 185 185 180 183
228 231 237 235 229 220 220 228 220 212 202 199 193 197 200 206 216 228 228 227 209 209 204 227 234 231 245 238 235 222 211 215 201 203 192 189 192 189 200 196 187 180 184
226 220 219 214 213 220 223 212 202 198 196 187 189 193 195 203 216 212 221 209 203 194 216 249 239 240 240 237 224 204 203 204 201 207 195 185 183 185 189 194 191 187 180
209 203 209 209 212 204 195 193 199 203 186 181 185 187 187 200 206 214 220 197 219 213 231 247 253 250 239 225 213 204 200 199 205 205 196 183 178 181 188 180 180 183 176
192 191 198 194 186 184 191 195 183 174 177 174 173 178 192 208 210 206 195 203 211 211 227 254 244 243 222 212 210 198 201 215 217 206 192 185 183 184 189 182 183 176 178
195 196 189 183 180 181 183 176 168 165 168 171 178 185 195 201 191 202 205 209 213 230 247 239 241 248 203 193 184 192 208 212 208 205 199 194 188 188 184 187 188 176 163
190 186 174 172 167 168 172 168 167 174 172 177 181 192 197 199 191 202 201 218 231 240 234 224 244 209 192 193 198 203 215 213 221 218 207 214 197 194 194 187 196 187 180
178 174 163 162 166 163 162 163 165 166 172 182 185 190 195 190 194 202 207 217 234 222 206 201 193 178 173 181 196 201 202 192 184 197 229 226 199 188 198 193 195 191 181
173 166 162 168 165 166 161 164 167 170 175 186 193 186 186 197 206 205 214 217 212 195 192 198 191 186 185 184 196 205 198 195 193 200 192 182 184 193 195 193 196 194 182
163 168 166 168 166 164 168 174 172 176 179 186 181 185 195 201 205 201 202 197 199 194 184 201 198 195 189 182 186 201 198 200 199 187 183 174 181 186 191 205 205 199 191
168 169 162 158 159 165 172 174 174 180 183 183 184 189 198 199 202 202 199 195 198 191 194 206 209 201 206 193 184 206 208 198 187 186 172 174 178 185 193 203 211 212 205
159 159 159 157 156 162 165 166 176 184 188 186 188 186 184 191 199 201 194 189 193 200 198 208 207 211 207 208 203 190 194 200 197 190 190 190 188 188 194 194 199 202 218
165 163 157 154 161 167 179 178 181 186 186 184 185 186 184 188 195 197 193 189 191 192 203 204 202 207 211 208 202 198 197 200 196 199 194 193 195 194 192 196 201 205 208
164 160 159 161 163 169 175 181 181 179 181 183 184 187 186 192 198 201 201 197 200 200 203 216 205 207 200 199 198 193 195 209 207 206 194 193 182 190 192 193 199 186 196
164 159 160 160 160 159 164 165 171 177 190 191 193 194 195 195 200 208 210 205 210 210 216 220 207 204 200 191 195 192 194 201 204 204 188 177 181 185 179 175 180 193 199
156 155 153 151 155 153 149 147 151 156 168 187 196 189 179 170 173 171 177 190 195 209 220 211 211 210 206 200 197 193 195 191 193 199 188 182 182 182 183 182 187 196 202
160 158 156 157 153 157 158 157 153 156 163 175 177 179 184 181 181 183 182 187 200 215 226 210 212 213 205 198 197 198 195 191 194 198 189 187 184 189 191 190 193 189 191
159 165 162 163 170 167 172 176 171 166 165 164 167 171 170 180 187 189 201 198 200 198 185 183 189 204 190 191 194 199 186 188 191 192 194 188 185 187 193 199 203 196 194
155 163 170 172 172 168 171 174 175 173 173 168 165 172 175 175 184 183 180 195 167 158 163 169 177 186 188 187 179 190 181 179 197 193 194 190 191 194 195 199 206 201 195
160 171 175 173 173 171 162 169 172 174 172 170 174 177 175 180 170 162 165 156 159 158 135 133 157 161 165 174 173 179 182 187 195 201 196 197 201 201 204 215 215 209 211
166 173 173 179 178 172 169 161 164 167 169 165 159 157 154 151 148 141 138 150 155 167 164 122 140 163 156 180 191 206 208 201 199 196 197 201 202 204 206 205 207 218 222
171 181 177 179 186 184 182 169 157 162 161 155 146 139 141 141 136 133 128 125 111 100 122 163 147 125 125 142 173 190 202 212 213 205 201 205 207 205 207 217 225 233 239
174 180 179 196 202 198 191 186 162 160 161 157 151 148 148 150 150 148 146 158 170 136 146 160 168 174 201 189 160 157 160 173 190 193 194 199 206 211 221 233 235 241 242
182 179 188 178 178 192 200 193 176 170 160 156 156 160 159 161 160 162 169 178 185 183 162 173 172 187 199 183 179 185 194 195 202 215 227 240 243 247 255 261 263 264 266
174 176 182 175 172 183 188 186 179 170 159 162 168 166 170 173 170 170 175 171 165 178 182 188 201 218 210 229 234 229 205 186 221 238 260 257 252 249 252 256 265 274 273
157 159 162 161 165 170 178 177 179 174 168 170 174 175 175 176 180 177 177 170 170 165 163 171 160 170 189 199 215 232 236 229 241 244 243 255 273 263 267 254 258 268 261